Position Dossard Nom Prenom Temps Filles moins de 12 ans Garcons moins de 12 ans Points Club
1 58 DAMAN MANU 00:07:54   1 988 RFCL
2 253 DE HEY BENJAMIN 00:07:56   2 977 HF
3 117 JENNEN THOMAS 00:08:00   3 965  
4 252 MONON ARNAUD 00:08:03   4 953 MEHAGNE
5 505 GEUDENS NATHAN 00:08:24   5 942  
6 27 BIATOUR BASILE 00:08:30   6 930 FCHA
7 52 DAMAN ARTHUR 00:08:34   7 919 RFCL
8 266 HOCK COLINE 00:08:37 1   907 FCHA
9 258 COLLARD ARNAUD 00:08:46   8 895 HERVE
10 166 PETITNIOT VALENTIN 00:08:49   9 884 AMC INTERSPORT
11 546 BALHAN BASTIEN 00:08:50   10 872  
12 53 DAMAN ETIENNE 00:08:52   11 860 RFCL
13 118 JENNEN VICTORIA 00:08:54 2   849  
14 55 DAMAN HELENE 00:09:02 3   837 RFCL
15 374 RIBANT NATHALIE 00:09:16 4   826  
16 826 RANDAXHE CHARLES 00:09:19   12 814  
17 802 MEYLEMANS OLIVIER 00:09:25     0  
18 250 HANIOT FLORIAN 00:09:31   13 802 HF
19 795 DEHARRE MATHIEU 00:09:33   14 791  
20 858 ROYER REMY 00:09:35   15 779  
21 512 HENSENNE EVA 00:09:44 5   767  
22 831 DE CLERCK VICTOR 00:09:46   16 756  
23 187 SIEMES QUENTIN 00:09:49   17 744 HF
24 801 LEYS FRANCOIS 00:09:51     0  
25 856 PURAYE BOGDAN 00:09:52   18 733  
26 816 AICH SOULEYMANE 00:09:57   19 721  
27 148 MARINO DAMIEN 00:09:59   20 709 RFCL
28 260 DELTOUR JENNYFER 00:10:00 6   698 NAIMETTE
29 545 LOUIS EMILIE 00:10:00 7   686  
30 550 HOFFMANN CATHERINE 00:10:00     0  
31 823 LAPIERRE NOA 00:10:01 8   674  
32 782 OZER LUCIEN 00:10:02   21 663  
33 245 PHILIPPOT JEANNE 00:10:04 9   651  
34 817 CHISOGNE DAMIEN 00:10:13   22 640  
35 827 TAWEMBE FERRAND 00:10:15   23 628  
36 511 HENSENNE TIM 00:10:19   24 616  
37 821 KAGN FOLAN 00:10:21   25 605  
38 836 HIFFE LUCAS 00:10:26   26 593  
39 788 LERUTH LYDIA 00:10:27 10   581  
40 850 KAGN MOYA 00:10:28 11   570  
41 825 PURAYE SLAVICA 00:10:35 12   558  
42 797 TIMMERMANS ROMAIN 00:10:41   27 547  
43 554 DERCLAY NOE 00:10:42   28 535  
44 837 HUBERT ROMANE 00:10:44 13   523  
45 798 DEHARRE VALENTINE 00:10:52 14   512  
46 548 DEMELENNE VICTORIA 00:11:01 15   500  
47 844 THIJSEN ROBIN 00:11:07   29 488  
48 509 VENTURELLI CORALIE 00:11:08 16   477  
49 787 DEBRY ELIOT 00:11:11   30 465  
50 784 DEVILLE CAMILLE 00:11:12 17   453  
51 796 LOGBO ORNELLA 00:11:13 18   442  
52 804 SPINEUX SACHA 00:11:17   31 430  
53 828 VAN HOVE MORGANE 00:11:21 19   419  
54 542 DUBOIS JULIEN 00:11:46   32 407  
55 794 DARDENNE ROMANE 00:11:48 20   395  
56 544 DAMAN PIERROT 00:11:53   33 384  
57 824 NIZET MARION 00:11:59 21   372  
58 549 HOFFMANN VICTORIA 00:12:01 22   360  
59 819 DEVILLE NO?MIE 00:12:03 23   349  
60 513 TABRUYN ARTHUR 00:12:05   34 337  
61 851 KEMPENEERS ALICIA 00:12:33 24   326  
62 803 SCARCIELLO DORIAN 00:12:35     0  
63 840 OZER JULIETTE 00:12:44 25   314  
64 786 HANTOT ADAM 00:12:47   35 302  
65 854 MOREAU SACHA 00:12:48 26   291  
66 841 SPINEUX LOUIS 00:12:50   36 279  
67 792 PREGALDIEN MAXIME 00:12:54   37 267  
68 543 DEFFET MARIE 00:13:12 27   256  
69 829 BODSON JEREMY 00:13:15   38 244  
70 830 CLAJOT MARGAUX 00:13:24 28   233  
71 847 DE WIT JEANNE 00:13:30 29   221  
72 853 LENTINI EMMA 00:13:31 30   209  
73 834 GRAAS LEA 00:13:32 31   198  
74 843 SCHORN INES 00:13:39 32   186  
75 842 PUTZEYS LILOU 00:13:43 33   174  
76 855 NATALIS LISA 00:13:46 34   163  
77 785 DEFAWE ELOISE 00:13:49 35   151  
78 820 HOSSON BAPTISTE 00:13:54   39 140  
79 833 DELHEZ ELLIOT 00:14:00   40 128  
80 832 DEFAWE JULIETTE 00:14:04 36   116  
81 789 DEWITH EVA 00:14:14 37   105  
82 790 LEBRUN LAURENT 00:14:15   41 93  
83 799 HEBRANS LOLA 00:14:54 38   81  
84 783 LAPIERRE NELL 00:14:57 39   70  
85 502 HERMAN MARINE 00:15:04 40   58  
86 848 DEFAWE MARIE 00:15:08     0  
87 541 DUBOIS SOPHIE 00:15:09     0  
88 507 VERCRUYSSE LUCA 00:15:29   42 47  
89 835 HAAS CLEMENCE 00:15:47 41   35  
90 857 VALENTINI DAMIEN 00:15:48     0  
91 838 KUS BERNA 00:15:52 42   23  
92 547 COLLARD PAULINE 00:16:13 43   12  
Joomla 3.0 Templates - by Joomlage.com